This is the latest recevied weather packets stored in our database for station/object KB7KFC-3. If no packets are shown the sender has not sent any weather packets the latest 10 day(s).
| Time | Temp. | Humidity | Pressure | Rain* | Wind** | Luminosity | Snow |
|---|---|---|---|---|---|---|---|
| 1778163905 | 19.44° C | 42% | 1014.9 hPa | 0 mm | - | - | - |
| 1778163724 | 19.44° C | 41% | 1014.9 hPa | 0 mm | - | - | - |
| 1778163544 | 18.89° C | 42% | 1014.8 hPa | 0 mm | - | - | - |
| 1778163364 | 18.89° C | 44% | 1014.8 hPa | 0 mm | - | - | - |
| 1778163186 | 18.33° C | 49% | 1014.7 hPa | 0 mm | - | - | - |
| 1778163005 | 18.33° C | 49% | 1014.8 hPa | 0 mm | - | - | - |
| 1778162644 | 17.78° C | 54% | 1014.8 hPa | 0 mm | - | - | - |
| 1778162464 | 17.22° C | 52% | 1014.8 hPa | 0 mm | - | - | - |
| 1778162284 | 17.22° C | 52% | 1014.8 hPa | 0 mm | - | - | - |
| 1778161744 | 16.67° C | 45% | 1014.8 hPa | 0 mm | - | - | - |
| 1778161385 | 16.67° C | 44% | 1014.7 hPa | 0 mm | - | - | - |
| 1778161203 | 16.11° C | 43% | 1014.7 hPa | 0 mm | - | - | - |
| 1778161024 | 16.11° C | 47% | 1014.7 hPa | 0 mm | - | - | - |
| 1778160843 | 16.11° C | 46% | 1014.6 hPa | 0 mm | - | - | - |
| 1778160664 | 16.11° C | 48% | 1014.6 hPa | 0 mm | - | - | - |
| 1778160485 | 16.11° C | 43% | 1014.5 hPa | 0 mm | - | - | - |
| 1778160304 | 16.11° C | 43% | 1014.6 hPa | 0 mm | - | - | - |
| 1778160124 | 16.11° C | 44% | 1014.5 hPa | 0 mm | - | - | - |
| 1778159944 | 16.11° C | 43% | 1014.6 hPa | 0 mm | - | - | - |
| 1778159763 | 15.56° C | 43% | 1014.4 hPa | 0 mm | - | - | - |
| 1778159585 | 15.56° C | 43% | 1014.5 hPa | 0 mm | - | - | - |
| 1778159405 | 15.56° C | 43% | 1014.5 hPa | 0 mm | - | - | - |
| 1778159225 | 15.56° C | 44% | 1014.4 hPa | 0 mm | - | - | - |
| 1778159045 | 15.56° C | 45% | 1014.4 hPa | 0 mm | - | - | - |
| 1778158865 | 15.56° C | 43% | 1014.4 hPa | 0 mm | - | - | - |
* Rain latest hour (hover to see other rain measurements)
** Current wind speed in m/s (hover to see current wind gust speed)